OPS 4682 DEB, 19242

Orbit data source: Space-Track

OPS 4682 DEB, 19242 is space debris in LEO originally from a launch on Sat, 03 Apr 1965 UTC launched from the Air Force Western Test Range (AFWTR). Debris objects in space refer to the collection of defunct objects orbiting the Earth. Examples of debris include non-operational satellites, rocket bodies, and fragments generated from explosions, collisions, or faulty payload assembly.

Loading next visibility...
Identifier
19242, 1965-027AS
Orbit
LEO
Country
Flag of USUS
Related business
Manufacturer
Unknown
Mission
Spacecraft
Bus & Motor
Unknown
Mass
Unknown
Launch date (UTC)
1965-04-03 (61 years ago)
Launch vehicle
Unknown
Launch site
Air Force Western Test Range (AFWTR)
Object type
Payload
Rocket body
Debris
Shape & HBR
Unknown shape, 0.1 m
Radar Cross Section
Small (<0.1 m²)

Expand to show TLE details & history
Last TLE update: 3 days ago

TLE from 3 days ago
0 OPS 4682 DEB
1 19242U 65027AS  26032.96760163  .00001088  00000-0  34980-2 0  9992
2 19242  90.2587  22.7790 0030170 107.7725 309.6711 13.01699042619736
Epoch: 2026-02-01T23:13Z
TLE epoch observation values (Epoch: 2026-02-01T23:13:20.780Z)
Latitude
57.26635°
Longitude
-98.12765°
Altitude
1,250.445 km
Speed
7.242 km/s
True Right ascension
01h 29m 30s
True Declination
57° 07' 11"
Sunlit
Object was in daylight at epoch
Visualization orbit readout
Latitude
Unknown
Longitude
Unknown
Altitude
Unknown
Speed
Unknown
Apparent Right ascension
Unknown
Apparent Declination
Unknown
Sunlit
N/A
Visualization observer readout
Local Sidereal Time
12:03:31
Azimuth
Unknown
Elevation
Unknown
Doppler factor
Unknown
Orbital elements
Apogee altitude
1,275.583 km
Perigee altitude
1,229.54 km
Semi-major axis
7,630.698 km
Eccentricity
0.00302
Inclination
90.2587°
RAAN
22.779°
Arg. of periapsis
107.7725°
True anomaly
309.40435°
Mean anomaly
309.6711°
Eccentric anomaly
309.53779°
Mean motion
3.25609 °/min
Orbital period
110.56 mins
BSTAR
0.003498
Loading maneuver chart data...
Computing Atmospheric mass density...
Loading historical data...
Loading historical data...
Loading historical data...
Loading historical data...
Loading historical data...
Loading historical data...
Loading historical data...

Documentation

Showing up to 5 results
|